Flag for India Weather past 2 weeks in Dholpur, Rajasthan, India

Now
91 °F

Broken clouds.


Feels Like: 100 °F
Forecast: 84 / 94 °F
Wind: 13 mph from East

Location: Jaipur / Sanganer

Current Time: Jul 23, 2014 at 5:10:20 PM

Latest Report: Jul 23, 2014 at 3:00 PM


Visibility: 2 mi

Pressure: 29.47 "Hg

Humidity: 56%

Dew point: 73 °F

Location of DholpurLocation

Historic Weather in Dholpur — Graph

°F

Dholpur temperature yesterday

Maximum temperature yesterday: 93 °F (at 3:00 PM)
Minimum temperature yesterday: 79 °F (at 6:00 PM)
Average temperature yesterday: 86 °F

Past Weeks' High & Low Weather Summary

 TemperatureHumidityPressure
High108 °F (Jul 11, 4:00 PM)100% (Jul 17, 3:00 AM)29.62 "Hg (Jul 17, 3:00 AM)
Low75 °F (Jul 21, 1:00 AM)15% (Jul 8, 4:00 PM)29.42 "Hg (Jul 15, 6:00 PM)
Average91 °F55%29.53 "Hg
* Reported Jul 8 3:00 PM — Jul 23 3:00 PM, Dholpur, Weather by CustomWeather, © 2014

Note: Actual official high and low records may vary slightly from our data, if they occured in-between our weather recording intervals... More about our weather records

Advertising

Dholpur weather history for previous 24 hours

 ConditionsComfort  
Time TempWeatherWind HumidityBarometerVisibility
3:00 PM
Jul 23
91 °FBroken clouds.13 mph56%29.47 "Hg2 mi
2:00 PM93 °FBroken clouds.14 mph53%29.50 "Hg2 mi
1:00 PM91 °FBroken clouds.14 mph56%29.50 "Hg2 mi
11:00 AM88 °FBroken clouds.10 mph70%29.53 "Hg2 mi
10:00 AM86 °FFog.10 mph70%29.53 "Hg2 mi
9:00 AM84 °FFog.10 mph74%29.53 "Hg2 mi
8:00 AM84 °FFog.10 mph79%29.53 "Hg2 mi
7:00 AM84 °FFog.6 mph79%29.53 "Hg2 mi
6:30 AM84 °FPartly sunny.5 mph62%29.56 "Hg3 mi
6:00 AM84 °FFog.5 mph79%29.50 "Hg2 mi
5:00 AM84 °FFog.2 mph79%29.50 "Hg2 mi
10:00 PM
Jul 22
82 °FPassing clouds.2 mph79%29.53 "Hg2 mi
8:00 PM82 °FFog.7 mph79%29.53 "Hg2 mi
7:00 PM82 °FFog.6 mph84%29.53 "Hg2 mi
6:00 PM79 °FLight rain. Broken clouds.9 mph89%29.50 "Hg2 mi
5:00 PM91 °FBroken clouds.5 mph59%29.47 "Hg2 mi
Weather by CustomWeather, © 2014

See weather overviewHow to use our weather pages